Date String (YYYY-MM-DD hh:mm:ss) UTC,Instrument flags,absolute air pressure of the measurement (hPa),sample flow rate (lpm),inlet stack bypass flow (lpm),air temperature of the measurement (°C),ambient temperature measured by the external sensor (°C),aerosol sample conditioner tube jacket temperature (°C),OPC LED temperature (°C),internal box temperature (°C),relative humidity of the measurement (%),span deviation,mass concentration of particles derived from Lorenz-Mie calculation of OPC scattering (μg/m³),mass concentration of particles derived from Lorenz-Mie calculation of OPC scattering (μg/m³),mass concentration of particles derived from Lorenz-Mie calculation of OPC scattering (μg/m³)
DateTimeUTC,F1_M11,P_M11,Q1_M11,Q2_M11,T1_M11,T2_M11,T3_M11,T4_M11,T5_M11,U1_M11,ZSPAN_M11,X0_M11,X2_M11,X1_M11
2024-04-08 22:00:00,SystemResetWarning,0825.6,5.01,000.00,022.8,022.3,000.0,031.0,024.6,004.8,0000.0,0004.42,0002.27,0001.58
2024-04-08 22:01:00,SystemResetWarning,0825.6,5.01,000.00,022.8,022.3,000.0,031.0,024.6,004.9,0000.0,0004.21,0002.24,0001.56
2024-04-08 22:02:00,SystemResetWarning,0825.7,4.99,000.00,022.9,022.3,000.0,031.0,024.6,004.8,0000.0,0004.24,0002.26,0001.56
2024-04-08 22:03:00,SystemResetWarning,0825.6,4.99,000.00,022.9,022.3,000.0,031.1,024.6,004.7,0000.0,0004.45,0002.30,0001.56
2024-04-08 22:04:00,SystemResetWarning,0825.6,5.01,000.00,022.9,022.3,000.0,031.1,024.7,004.6,0000.0,0004.52,0002.32,0001.56
2024-04-08 22:05:00,SystemResetWarning,0825.6,5.01,000.00,022.9,022.3,000.0,031.1,024.6,004.2,0000.0,0004.38,0002.26,0001.54
2024-04-08 22:06:00,SystemResetWarning,0825.7,5.00,000.00,022.9,022.3,000.0,031.1,024.6,004.2,0000.0,0004.34,0002.22,0001.52
2024-04-08 22:07:00,SystemResetWarning,0825.6,5.00,000.00,022.9,022.4,000.0,031.1,024.7,004.1,0000.0,0004.72,0002.28,0001.52
2024-04-08 22:08:00,SystemResetWarning,0825.6,4.99,000.00,022.9,022.4,000.0,031.1,024.7,004.3,0000.0,0004.55,0002.27,0001.51
2024-04-08 22:09:00,SystemResetWarning,0825.6,4.99,000.00,022.9,022.4,000.0,031.1,024.7,004.7,0000.0,0004.18,0002.27,0001.51
2024-04-08 22:10:00,SystemResetWarning,0825.6,5.01,000.00,022.9,022.4,000.0,031.1,024.7,004.4,0000.0,0004.31,0002.31,0001.51
2024-04-08 22:11:00,SystemResetWarning,0825.6,5.01,000.00,023.0,022.4,000.0,031.2,024.7,004.3,0000.0,0004.38,0002.35,0001.51
2024-04-08 22:12:00,SystemResetWarning,0825.7,5.00,000.00,023.0,022.4,000.0,031.2,024.7,004.6,0000.0,0004.73,0002.41,0001.53
2024-04-08 22:13:00,SystemResetWarning,0825.6,5.00,000.00,023.0,022.4,000.0,031.2,024.8,004.6,0000.0,0004.77,0002.42,0001.53
2024-04-08 22:14:00,SystemResetWarning,0825.6,5.00,000.00,023.0,022.4,000.0,031.2,024.8,004.9,0000.0,0004.54,0002.38,0001.53
2024-04-08 22:15:00,SystemResetWarning,0825.6,5.00,000.00,023.0,022.4,000.0,031.2,024.8,004.8,0000.0,0004.45,0002.33,0001.54
2024-04-08 22:16:00,SystemResetWarning,0825.6,5.00,000.00,023.0,022.5,000.0,031.2,024.8,004.5,0000.0,0004.46,0002.36,0001.54
2024-04-08 22:17:00,SystemResetWarning,0825.6,5.00,000.00,023.0,022.5,000.0,031.2,024.8,004.7,0000.0,0004.58,0002.42,0001.55
2024-04-08 22:18:00,SystemResetWarning,0825.6,4.99,000.00,023.1,022.5,000.0,031.2,024.8,004.9,0000.0,0004.31,0002.38,0001.54
2024-04-08 22:19:00,SystemResetWarning,0825.5,5.01,000.00,023.1,022.5,000.0,031.3,024.8,004.9,0000.0,0004.32,0002.35,0001.52
2024-04-08 22:20:00,SystemResetWarning,0825.6,5.01,000.00,023.1,022.5,000.0,031.3,024.8,005.1,0000.0,0004.34,0002.35,0001.51
2024-04-08 22:21:00,SystemResetWarning,0825.6,5.01,000.00,023.1,022.5,000.0,031.3,024.9,005.0,0000.0,0004.25,0002.32,0001.51
2024-04-08 22:22:00,SystemResetWarning,0825.6,4.99,000.00,023.1,022.6,000.0,031.3,024.9,004.9,0000.0,0004.18,0002.29,0001.52
2024-04-08 22:23:00,SystemResetWarning,0825.6,4.99,000.00,023.1,022.6,000.0,031.3,024.9,004.8,0000.0,0003.87,0002.25,0001.51
2024-04-08 22:24:00,SystemResetWarning,0825.6,5.00,000.00,023.1,022.6,000.0,031.3,024.9,004.8,0000.0,0003.87,0002.25,0001.52
2024-04-08 22:25:00,SystemResetWarning,0825.6,5.01,000.00,023.1,022.6,000.0,031.3,024.9,004.7,0000.0,0004.06,0002.29,0001.52
2024-04-08 22:26:00,SystemResetWarning,0825.6,5.01,000.00,023.2,022.6,000.0,031.3,024.9,004.8,0000.0,0004.10,0002.30,0001.51
2024-04-08 22:27:00,SystemResetWarning,0825.6,5.00,000.00,023.2,022.6,000.0,031.3,024.9,005.0,0000.0,0004.11,0002.29,0001.51
2024-04-08 22:28:00,SystemResetWarning,0825.6,4.99,000.00,023.2,022.6,000.0,031.4,024.9,005.0,0000.0,0004.00,0002.24,0001.52
2024-04-08 22:29:00,SystemResetWarning,0825.6,5.00,000.00,023.2,022.6,000.0,031.4,024.9,004.9,0000.0,0004.01,0002.23,0001.53
2024-04-08 22:30:00,SystemResetWarning,0825.5,5.00,000.00,023.2,022.6,000.0,031.4,025.0,005.2,0000.0,0003.88,0002.24,0001.54
2024-04-08 22:31:00,SystemResetWarning,0825.6,5.00,000.00,023.2,022.7,000.0,031.4,025.0,005.2,0000.0,0003.82,0002.24,0001.56
2024-04-08 22:32:00,SystemResetWarning,0825.6,5.00,000.00,023.2,022.7,000.0,031.4,025.0,005.3,0000.0,0003.78,0002.22,0001.56
2024-04-08 22:33:00,SystemResetWarning,0825.6,5.00,000.00,023.2,022.7,000.0,031.4,025.0,005.2,0000.0,0003.77,0002.20,0001.56
2024-04-08 22:34:00,SystemResetWarning,0825.6,5.00,000.00,023.3,022.7,000.0,031.4,025.0,005.0,0000.0,0003.72,0002.18,0001.56
2024-04-08 22:35:00,SystemResetWarning,0825.6,5.00,000.00,023.3,022.7,000.0,031.5,025.0,004.9,0000.0,0003.80,0002.23,0001.57
2024-04-08 22:36:00,SystemResetWarning,0825.7,5.01,000.00,023.3,022.7,000.0,031.5,025.0,004.9,0000.0,0003.71,0002.21,0001.57
2024-04-08 22:37:00,SystemResetWarning,0825.7,5.00,000.00,023.3,022.7,000.0,031.5,025.0,004.9,0000.0,0003.67,0002.19,0001.56
2024-04-08 22:38:00,SystemResetWarning,0825.6,5.00,000.00,023.3,022.7,000.0,031.5,025.0,004.9,0000.0,0003.62,0002.18,0001.56
2024-04-08 22:39:00,SystemResetWarning,0825.7,4.99,000.00,023.3,022.7,000.0,031.5,025.1,004.8,0000.0,0003.60,0002.17,0001.54
2024-04-08 22:40:00,SystemResetWarning,0825.7,5.00,000.00,023.3,022.8,000.0,031.5,025.1,004.9,0000.0,0003.58,0002.17,0001.53
2024-04-08 22:41:00,SystemResetWarning,0825.8,4.99,000.00,023.4,022.8,000.0,031.5,025.1,004.6,0000.0,0003.56,0002.16,0001.53
2024-04-08 22:42:00,SystemResetWarning,0825.8,5.00,000.00,023.4,022.8,000.0,031.6,025.1,004.6,0000.0,0003.54,0002.15,0001.53
2024-04-08 22:43:00,SystemResetWarning,0825.8,5.00,000.00,023.4,022.8,000.0,031.6,025.1,004.8,0000.0,0003.56,0002.15,0001.52
2024-04-08 22:44:00,SystemResetWarning,0825.8,5.00,000.00,023.4,022.9,000.0,031.6,025.2,005.0,0000.0,0003.75,0002.21,0001.52
2024-04-08 22:45:00,SystemResetWarning,0825.8,5.00,000.00,023.4,022.9,000.0,031.6,025.2,004.6,0000.0,0005.42,0002.22,0001.52
2024-04-08 22:46:00,SystemResetWarning,0825.8,5.00,000.00,023.4,022.9,000.0,031.6,025.2,004.2,0000.0,0005.38,0002.20,0001.51
2024-04-08 22:47:00,SystemResetWarning,0825.8,5.01,000.00,023.5,022.9,000.0,031.7,025.2,004.5,0000.0,0005.28,0002.18,0001.50
2024-04-08 22:48:00,SystemResetWarning,0825.8,5.00,000.00,023.5,022.9,000.0,031.7,025.2,004.6,0000.0,0005.18,0002.15,0001.50
2024-04-08 22:49:00,SystemResetWarning,0825.8,4.99,000.00,023.5,022.9,000.0,031.7,025.3,004.5,0000.0,0005.42,0002.22,0001.51
2024-04-08 22:50:00,SystemResetWarning,0825.8,4.99,000.00,023.5,023.0,000.0,031.7,025.3,004.4,0000.0,0005.89,0002.32,0001.52
2024-04-08 22:51:00,SystemResetWarning,0825.8,5.01,000.00,023.5,023.0,000.0,031.7,025.3,004.6,0000.0,0006.11,0002.38,0001.53
2024-04-08 22:52:00,SystemResetWarning,0825.8,5.01,000.00,023.5,023.0,000.0,031.7,025.3,004.5,0000.0,0006.18,0002.40,0001.54
2024-04-08 22:53:00,SystemResetWarning,0825.9,5.00,000.00,023.5,023.0,000.0,031.7,025.3,004.4,0000.0,0006.24,0002.42,0001.53
2024-04-08 22:54:00,SystemResetWarning,0825.9,4.99,000.00,023.5,023.0,000.0,031.7,025.3,004.4,0000.0,0006.32,0002.43,0001.52
2024-04-08 22:55:00,SystemResetWarning,0825.9,5.00,000.00,023.6,023.0,000.0,031.8,025.3,004.6,0000.0,0005.99,0002.33,0001.51
2024-04-08 22:56:00,SystemResetWarning,0825.9,5.01,000.00,023.6,023.0,000.0,031.8,025.3,004.5,0000.0,0004.77,0002.27,0001.50
2024-04-08 22:57:00,SystemResetWarning,0825.9,5.00,000.00,023.6,023.0,000.0,031.8,025.3,004.8,0000.0,0004.09,0002.22,0001.48
2024-04-08 22:58:00,SystemResetWarning,0825.9,4.99,000.00,023.6,023.1,000.0,031.8,025.4,005.2,0000.0,0004.01,0002.19,0001.49
2024-04-08 22:59:00,SystemResetWarning,0825.9,4.99,000.00,023.6,023.1,000.0,031.8,025.4,005.2,0000.0,0003.99,0002.21,0001.50
